Find Starlink 3074

NORAD ID: 49170 Int'l Des: 2021-082 Owner: SPXS Country: US Constellation: starlink decayed
LEOCIRCULAR
Vis

Historical Track — Dec 17, 2024

Loading 3D Globe...

About Starlink 3074

Description loading...

Altitude History

Loading altitude history...

Two-Line Element Set

1 49170U 21082AS 24352.61651825 .11901907 45169-5 16868-3 0 9994
2 49170 69.9775 323.9724 0006404 243.4063 239.7597 16.48725365179435
Epoch: Dec 17, 2024 • Age: 12117 hours

Current Status

Altitude 9870.4 km
Velocity 4.39 km/s
Sub-Earth Point -32.22°S, 57.54°E
Launch Date Sep 14, 2021
Age 4.6 years
Decay Date Dec 17, 2024
Type internet

Technical Details

Classification Payload
Mass 297.00 kg
Dry Mass 275.00 kg
Total Mass 297.00 kg
Length 0.20 m
Diameter 2.80 m
Span 9.00 m
Shape Box + pan
Manufacturer SPXS
Bus Type Starlink
Phase Status Reentered
Owner/State SPXS/US

Most Searched